Location: Recife
(8.0585°S, 34.8848°W)
Time: 13:22:16
(UTC-03:00)

Tiros 1 - Pass Details

Date: 23 April 2026
Orbit: 618 x 648 km, 48.4° (Epoch: 11 May)

Event Time Altitude Azimuth Distance (km) Brightness Sun altitude
Rises 04:54:41 0° 250° (WSW) 2,899 - -7.4°
Exits shadow 04:57:12 - 267° (W) 2,166 9.2 -6.8°
Reaches altitude 10° 04:58:00 10° 275° (W) 1,982 9.0 -6.6°
Maximum altitude 05:00:25 14° 308° (NW) 1,713 9.0 -6.0°
Drops below altitude 10° 05:02:50 10° 340° (NNW) 1,969 9.6 -5.4°
Sets 05:06:07 0° 5° (N) 2,866 10.7 -4.6°
